Time,TemperatureF,DewpointF,PressureIn,WindDirection,WindDirectionDegrees,WindSpeedMPH,WindSpeedGustMPH,Humidity,HourlyPrecipIn,Conditions,Clouds,dailyrainin,SoftwareType,DateUTC
2013-03-13 00:03:00,50.0,-99.9,-100.00,SSW,194,6.0,-999.0,-999,-99.99,,,-99.99,,2013-03-13 07:03:00,
2013-03-13 00:12:00,50.0,-99.9,-100.00,SSW,194,6.0,-999.0,-999,-99.99,,,-99.99,,2013-03-13 07:12:00,
2013-03-13 00:20:00,49.0,-99.9,-100.00,SSW,205,5.0,-999.0,-999,-99.99,,,-99.99,,2013-03-13 07:20:00,
2013-03-13 01:04:00,49.0,-99.9,-100.00,SSW,205,5.0,-999.0,-999,-99.99,,,-99.99,,2013-03-13 08:04:00,
2013-03-13 01:12:00,49.0,-99.9,-100.00,SSW,205,5.0,-999.0,-999,-99.99,,,-99.99,,2013-03-13 08:12:00,
2013-03-13 01:20:00,49.0,-99.9,-100.00,SSW,208,7.0,-999.0,-999,-99.99,,,-99.99,,2013-03-13 08:20:00,
2013-03-13 02:02:00,49.0,-99.9,-100.00,SSW,208,7.0,-999.0,-999,-99.99,,,-99.99,,2013-03-13 09:02:00,
2013-03-13 02:13:00,49.0,-99.9,-100.00,SSW,208,7.0,-999.0,-999,-99.99,,,-99.99,,2013-03-13 09:13:00,
2013-03-13 02:20:00,50.0,-99.9,-100.00,South,191,12.0,-999.0,-999,-99.99,,,-99.99,,2013-03-13 09:20:00,
2013-03-13 03:02:00,50.0,-99.9,-100.00,South,191,12.0,-999.0,-999,-99.99,,,-99.99,,2013-03-13 10:02:00,
2013-03-13 03:12:00,50.0,-99.9,-100.00,South,191,12.0,-999.0,-999,-99.99,,,-99.99,,2013-03-13 10:12:00,
2013-03-13 03:20:00,51.0,-99.9,-100.00,South,186,9.0,-999.0,-999,-99.99,,,-99.99,,2013-03-13 10:20:00,
2013-03-13 04:02:00,51.0,-99.9,-100.00,South,186,9.0,-999.0,-999,-99.99,,,-99.99,,2013-03-13 11:02:00,
2013-03-13 04:13:00,51.0,-99.9,-100.00,South,186,9.0,-999.0,-999,-99.99,,,-99.99,,2013-03-13 11:13:00,
2013-03-13 04:20:00,49.0,-99.9,-100.00,SSW,195,3.0,-999.0,-999,-99.99,,,-99.99,,2013-03-13 11:20:00,
2013-03-13 05:02:00,49.0,-99.9,-100.00,SSW,195,3.0,-999.0,-999,-99.99,,,-99.99,,2013-03-13 12:02:00,
2013-03-13 05:12:00,49.0,-99.9,-100.00,SSW,195,3.0,-999.0,-999,-99.99,,,-99.99,,2013-03-13 12:12:00,
2013-03-13 05:20:00,50.0,-99.9,-100.00,SSW,192,6.0,-999.0,-999,-99.99,,,-99.99,,2013-03-13 12:20:00,
2013-03-13 06:02:00,50.0,-99.9,-100.00,SSW,192,6.0,-999.0,-999,-99.99,,,-99.99,,2013-03-13 13:02:00,
2013-03-13 06:12:00,50.0,-99.9,-100.00,SSW,192,6.0,-999.0,-999,-99.99,,,-99.99,,2013-03-13 13:12:00,
2013-03-13 06:20:00,49.0,-99.9,-100.00,SSW,192,9.0,-999.0,-999,-99.99,,,-99.99,,2013-03-13 13:20:00,
2013-03-13 07:03:00,49.0,-99.9,-100.00,SSW,192,9.0,-999.0,-999,-99.99,,,-99.99,,2013-03-13 14:03:00,
2013-03-13 07:12:00,49.0,-99.9,-100.00,SSW,192,9.0,-999.0,-999,-99.99,,,-99.99,,2013-03-13 14:12:00,
2013-03-13 07:20:00,50.0,-99.9,-100.00,South,190,7.0,-999.0,-999,-99.99,,,-99.99,,2013-03-13 14:20:00,
2013-03-13 08:03:00,50.0,-99.9,-100.00,South,190,7.0,-999.0,-999,-99.99,,,-99.99,,2013-03-13 15:03:00,
2013-03-13 08:12:00,50.0,-99.9,-100.00,South,190,7.0,-999.0,-999,-99.99,,,-99.99,,2013-03-13 15:12:00,
2013-03-13 08:20:00,49.0,-99.9,-100.00,South,186,3.0,-999.0,-999,-99.99,,,-99.99,,2013-03-13 15:20:00,
2013-03-13 09:03:00,49.0,-99.9,-100.00,South,186,3.0,-999.0,-999,-99.99,,,-99.99,,2013-03-13 16:03:00,
2013-03-13 09:13:00,49.0,-99.9,-100.00,South,186,3.0,-999.0,-999,-99.99,,,-99.99,,2013-03-13 16:13:00,
2013-03-13 09:20:00,50.0,-99.9,-100.00,SE,128,6.0,-999.0,-999,-99.99,,,-99.99,,2013-03-13 16:20:00,
2013-03-13 10:03:00,50.0,-99.9,-100.00,SE,128,6.0,-999.0,-999,-99.99,,,-99.99,,2013-03-13 17:03:00,
2013-03-13 10:12:00,50.0,-99.9,-100.00,SE,128,6.0,-999.0,-999,-99.99,,,-99.99,,2013-03-13 17:12:00,
2013-03-13 10:20:00,51.0,-99.9,-100.00,South,175,6.0,-999.0,-999,-99.99,,,-99.99,,2013-03-13 17:20:00,
2013-03-13 11:03:00,51.0,-99.9,-100.00,South,175,6.0,-999.0,-999,-99.99,,,-99.99,,2013-03-13 18:03:00,
2013-03-13 11:13:00,51.0,-99.9,-100.00,South,175,6.0,-999.0,-999,-99.99,,,-99.99,,2013-03-13 18:13:00,
2013-03-13 11:20:00,51.0,-99.9,-100.00,South,182,3.0,-999.0,-999,-99.99,,,-99.99,,2013-03-13 18:20:00,
2013-03-13 12:03:00,51.0,-99.9,-100.00,South,182,3.0,-999.0,-999,-99.99,,,-99.99,,2013-03-13 19:03:00,
2013-03-13 12:13:00,51.0,-99.9,-100.00,South,182,3.0,-999.0,-999,-99.99,,,-99.99,,2013-03-13 19:13:00,
2013-03-13 12:20:00,51.0,-99.9,-100.00,SW,231,2.0,-999.0,-999,-99.99,,,-99.99,,2013-03-13 19:20:00,
2013-03-13 13:02:00,51.0,-99.9,-100.00,SW,231,2.0,-999.0,-999,-99.99,,,-99.99,,2013-03-13 20:02:00,
2013-03-13 13:13:00,51.0,-99.9,-100.00,SW,231,2.0,-999.0,-999,-99.99,,,-99.99,,2013-03-13 20:13:00,
2013-03-13 13:20:00,51.0,-99.9,-100.00,SSW,209,5.0,-999.0,-999,-99.99,,,-99.99,,2013-03-13 20:20:00,
2013-03-13 14:02:00,51.0,-99.9,-100.00,SSW,209,5.0,-999.0,-999,-99.99,,,-99.99,,2013-03-13 21:02:00,
2013-03-13 14:12:00,51.0,-99.9,-100.00,SSW,209,5.0,-999.0,-999,-99.99,,,-99.99,,2013-03-13 21:12:00,
2013-03-13 14:20:00,51.0,-99.9,-100.00,SSE,167,3.0,-999.0,-999,-99.99,,,-99.99,,2013-03-13 21:20:00,
2013-03-13 15:02:00,51.0,-99.9,-100.00,SSE,167,3.0,-999.0,-999,-99.99,,,-99.99,,2013-03-13 22:02:00,
2013-03-13 15:12:00,51.0,-99.9,-100.00,SSE,167,3.0,-999.0,-999,-99.99,,,-99.99,,2013-03-13 22:12:00,
2013-03-13 15:20:00,51.0,-99.9,-100.00,South,188,2.0,-999.0,-999,-99.99,,,-99.99,,2013-03-13 22:20:00,
2013-03-13 16:02:00,51.0,-99.9,-100.00,South,188,2.0,-999.0,-999,-99.99,,,-99.99,,2013-03-13 23:02:00,
2013-03-13 16:12:00,51.0,-99.9,-100.00,South,188,2.0,-999.0,-999,-99.99,,,-99.99,,2013-03-13 23:12:00,
2013-03-13 16:20:00,52.0,-99.9,-100.00,SSW,194,3.0,-999.0,-999,-99.99,,,-99.99,,2013-03-13 23:20:00,
2013-03-13 17:02:00,52.0,-99.9,-100.00,SSW,194,3.0,-999.0,-999,-99.99,,,-99.99,,2013-03-14 00:02:00,
2013-03-13 17:13:00,52.0,-99.9,-100.00,SSW,194,3.0,-999.0,-999,-99.99,,,-99.99,,2013-03-14 00:13:00,
2013-03-13 17:20:00,51.0,-99.9,-100.00,SSE,167,1.0,-999.0,-999,-99.99,,,-99.99,,2013-03-14 00:20:00,
2013-03-13 18:03:00,51.0,-99.9,-100.00,SSE,167,1.0,-999.0,-999,-99.99,,,-99.99,,2013-03-14 01:03:00,
2013-03-13 18:12:00,51.0,-99.9,-100.00,SSE,167,1.0,-999.0,-999,-99.99,,,-99.99,,2013-03-14 01:12:00,
2013-03-13 18:20:00,50.0,-99.9,-100.00,South,184,1.0,-999.0,-999,-99.99,,,-99.99,,2013-03-14 01:20:00,
2013-03-13 19:02:00,50.0,-99.9,-100.00,South,184,1.0,-999.0,-999,-99.99,,,-99.99,,2013-03-14 02:02:00,
2013-03-13 19:12:00,50.0,-99.9,-100.00,South,184,1.0,-999.0,-999,-99.99,,,-99.99,,2013-03-14 02:12:00,
2013-03-13 19:20:00,51.0,-99.9,-100.00,SE,141,5.0,-999.0,-999,-99.99,,,-99.99,,2013-03-14 02:20:00,
2013-03-13 20:02:00,51.0,-99.9,-100.00,SE,141,5.0,-999.0,-999,-99.99,,,-99.99,,2013-03-14 03:02:00,
2013-03-13 20:12:00,51.0,-99.9,-100.00,SE,141,5.0,-999.0,-999,-99.99,,,-99.99,,2013-03-14 03:12:00,
2013-03-13 20:20:00,51.0,-99.9,-100.00,SSE,148,5.0,-999.0,-999,-99.99,,,-99.99,,2013-03-14 03:20:00,
2013-03-13 21:12:00,51.0,-99.9,-100.00,SSE,148,5.0,-999.0,-999,-99.99,,,-99.99,,2013-03-14 04:12:00,
2013-03-13 21:20:00,50.0,-99.9,-100.00,SE,132,5.0,-999.0,-999,-99.99,,,-99.99,,2013-03-14 04:20:00,
2013-03-13 22:02:00,50.0,-99.9,-100.00,SE,132,5.0,-999.0,-999,-99.99,,,-99.99,,2013-03-14 05:02:00,
2013-03-13 22:13:00,50.0,-99.9,-100.00,SE,132,5.0,-999.0,-999,-99.99,,,-99.99,,2013-03-14 05:13:00,
2013-03-13 22:20:00,50.0,-99.9,-100.00,South,174,3.0,-999.0,-999,-99.99,,,-99.99,,2013-03-14 05:20:00,
2013-03-13 23:02:00,50.0,-99.9,-100.00,South,174,3.0,-999.0,-999,-99.99,,,-99.99,,2013-03-14 06:02:00,
2013-03-13 23:12:00,50.0,-99.9,-100.00,South,174,3.0,-999.0,-999,-99.99,,,-99.99,,2013-03-14 06:12:00,
2013-03-13 23:20:00,50.0,-99.9,-100.00,South,172,5.0,-999.0,-999,-99.99,,,-99.99,,2013-03-14 06:20:00,